Hourly Data Report for September 15, 2004

TORONTO CITY
ONTARIO

43°40'00.000" N
79°24'00.000" W
112.50 m
6158355
71508
XTO

Download Data

Hourly Data (September 2004)
Hourly Data Report for September 15, 2004
TIME
LST
Temp Definition
°C
Dew Point Definition
°C
Rel Hum Definition
%
Precip. Amount Definition
mm

Wind Dir Definition
10's deg

Wind Spd Definition
km/h
Visibility Definition
km
Stn Press Definition
kPa
Hmdx Definition


Wind Chill Definition


Weather Definition


00:00 20.5 18.4 88   LegendMM LegendMM LegendMM 100.62 27   LegendNANA
01:00 20.7 19.1 91   LegendMM LegendMM LegendMM 100.64 28   LegendNANA
02:00 20.0 18.9 93   LegendMM LegendMM LegendMM 100.65 27   LegendNANA
03:00 19.9 18.9 94   LegendMM LegendMM LegendMM 100.65     LegendNANA
04:00 19.6 18.6 94   LegendMM LegendMM LegendMM 100.67     LegendNANA
05:00 19.7 18.6 93   LegendMM LegendMM LegendMM 100.68     LegendNANA
06:00 19.5 18.4 93   LegendMM LegendMM LegendMM 100.68     LegendNANA
07:00 19.5 18.6 95   LegendMM LegendMM LegendMM 100.70     LegendNANA
08:00 20.7 18.7 88   LegendMM LegendMM LegendMM 100.67 27   LegendNANA
09:00 21.5 19.0 86   LegendMM LegendMM LegendMM 100.69 28   LegendNANA
10:00 23.0 19.0 78   LegendMM LegendMM LegendMM 100.67 30   LegendNANA
11:00 24.2 19.1 73   LegendMM LegendMM LegendMM 100.65 31   LegendNANA
12:00 25.4 18.7 66   LegendMM LegendMM LegendMM 100.59 32   LegendNANA
13:00 25.3 18.5 66   LegendMM LegendMM LegendMM 100.56 32   LegendNANA
14:00 25.4 18.6 66   LegendMM LegendMM LegendMM 100.50 32   LegendNANA
15:00 25.4 18.5 66   LegendMM LegendMM LegendMM 100.42 32   LegendNANA
16:00 24.6 18.1 67   LegendMM LegendMM LegendMM 100.37 31   LegendNANA
17:00 24.3 18.0 68   LegendMM LegendMM LegendMM 100.37 30   LegendNANA
18:00 23.7 17.5 68   LegendMM LegendMM LegendMM 100.31 29   LegendNANA
19:00 23.1 17.5 71   LegendMM LegendMM LegendMM 100.29 29   LegendNANA
20:00 21.9 19.0 84   LegendMM LegendMM LegendMM 100.33 29   LegendNANA
21:00 21.7 18.1 80   LegendMM LegendMM LegendMM 100.29 28   LegendNANA
22:00 20.9 17.6 81   LegendMM LegendMM LegendMM 100.28 27   LegendNANA
23:00 20.2 17.9 87   LegendMM LegendMM LegendMM 100.23 26   LegendNANA

Notes on Data Quality.

Legend

  • E = Estimated
  • M = Missing
  • NA = Not Available*
  • [empty] = Indicates an unobserved value
Date modified: